Dewpoint
5 8 11 14 15 15 15 15 12 8 8 7 6 6 6 7 11 15 11 12 11 7 0 -4 3 7 8 4 3 3 4 4 4 5 4 1 -0 -1 3 8 11 12 12 13 13 13 12 13 12
5 7 11 13 15 15 13 12 11 8 7 6 6 5 5 9 8 10 11 11 10 6 4 -2 2 7 8 6 6 6 5 3 -1 -7 -14 -17 -14 -9 -4 0 4 7 9 10 12 13 13 12 13
7 8 11 13 14 14 12 11 9 7 7 6 6 6 4 7 10 9 11 11 10 11 12 0 1 7 8 7 7 7 5 -3 -7 -16 -20 -21 -21 -20 -21 -17 -6 1 5 4 5 9 11 13 12
8 11 10 11 12 11 10 9 6 8 7 7 6 6 6 6 4 6 10 12 12 14 13 13 11 3 8 8 8 7 3 -2 -9 -16 -20 -19 -18 -18 -19 -20 -22 -21 -13 -3 1 4 6 10 12
7 9 12 12 11 7 9 7 5 6 6 7 6 6 6 7 6 6 12 9 12 13 14 14 13 5 7 10 9 7 2 -1 -9 -16 -17 -16 -17 -16 -15 -17 -21 -23 -22 -22 -18 -9 -0 7 12
6 8 9 8 6 3 -0 2 3 3 3 5 6 5 7 10 8 8 9 8 13 14 14 14 14 13 0 10 11 8 3 -0 -10 -16 -15 -16 -15 -14 -14 -12 -14 -20 -25 -24 -23 -21 -13 3 8
7 8 7 6 5 2 1 -1 3 1 1 2 5 5 7 7 8 5 6 12 13 14 14 14 13 12 6 6 12 10 5 1 -11 -16 -15 -15 -14 -14 -16 -14 -11 -14 -20 -24 -24 -23 -20 -14 -6
5 7 5 3 3 3 -0 -4 -2 -1 1 0 -1 5 6 5 2 9 10 12 13 14 13 13 12 10 7 -3 11 11 6 1 -8 -16 -15 -14 -14 -13 -17 -16 -12 -10 -14 -20 -22 -22 -21 -19 -14
4 2 3 -0 -1 1 -3 -3 -5 -6 -4 -2 -1 -2 2 3 4 10 11 11 12 13 12 11 9 9 9 10 3 12 8 3 -5 -14 -15 -13 -13 -12 -17 -20 -13 -9 -9 -15 -21 -21 -21 -20 -19
2 4 0 -2 -4 -4 -5 -4 -4 -5 -6 -7 -6 -6 1 4 4 8 11 10 11 11 10 9 9 9 9 11 9 5 11 5 -1 -12 -14 -12 -13 -12 -13 -19 -17 -11 -8 -10 -17 -21 -21 -20 -17
-1 0 -1 -3 -6 -6 -4 -4 -4 -5 -4 -7 -5 -3 -3 4 6 6 9 10 10 10 10 9 9 9 9 11 10 7 10 8 1 -8 -12 -11 -12 -12 -11 -16 -19 -16 -9 -7 -11 -18 -21 -21 -20
-2 -2 -3 -4 -5 -4 -3 -5 -4 -4 -5 -7 -7 -6 -6 1 3 5 7 9 10 10 9 9 9 9 9 12 10 10 8 10 6 -2 -11 -11 -12 -11 -10 -12 -16 -16 -13 -9 -7 -12 -19 -21 -21
-4 -5 -4 -4 -5 -5 -6 -4 -4 -5 -6 -6 -6 -6 -7 -7 0 2 3 6 8 9 9 8 9 8 8 10 10 12 12 10 9 6 -7 -6 -10 -9 -9 -10 -13 -15 -15 -13 -8 -8 -13 -19 -19
-4 -3 -3 -5 -7 -6 -5 -5 -5 -6 -8 -8 -6 -6 -6 -7 -8 -7 -6 -1 4 5 6 7 8 8 7 9 9 10 11 10 10 6 5 -1 -8 -7 -8 -10 -10 -12 -14 -13 -11 -7 -8 -15 -19
-5 -2 -3 -4 -5 -4 -5 -4 -6 -9 -8 -7 -6 -9 -10 -11 -8 -5 -3 -3 -4 -1 2 6 7 7 8 7 8 9 9 10 9 7 6 4 -5 -6 -7 -8 -9 -10 -12 -12 -12 -9 -7 -10 -16
-6 -5 -4 -5 -6 -3 -7 -3 -5 -10 -9 -10 -11 -11 -10 -3 -2 -2 -2 -4 -4 -2 -0 3 4 6 7 8 7 8 9 9 9 8 7 5 0 -5 -6 -6 -8 -9 -10 -11 -11 -10 -8 -8 -14
-3 -4 -6 -7 -9 -4 -4 -4 -6 -9 -8 -8 -9 -8 -3 -3 -3 -3 -2 -2 -1 -1 -1 -0 2 10 8 7 8 8 8 8 8 8 8 6 0 -2 -5 -5 -7 -8 -9 -10 -11 -10 -9 -7 -10
-5 -7 -8 -7 -9 -6 -3 -3 -4 -6 -5 -3 -3 -3 -5 -6 -5 -5 -5 -4 -3 -2 -1 -0 1 5 9 11 10 9 9 8 8 8 8 7 4 0 -3 -5 -6 -7 -9 -10 -10 -10 -9 -7 -9
-5 -5 -4 -4 -4 -3 -3 -2 -4 -2 -3 -6 -7 -8 -7 -6 -6 -6 -6 -6 -5 -5 -4 -4 -2 -1 2 6 10 11 9 9 8 8 7 7 6 3 -0 -3 -5 -6 -8 -10 -9 -9 -9 -8 -8
-4 -2 -2 -2 -2 -3 -2 -2 -2 -5 -6 -7 -8 -8 -8 -7 -7 -7 -6 -6 -6 -6 -6 -6 -6 -6 -6 -6 -2 3 9 8 8 9 8 6 6 5 2 -0 -4 -6 -7 -8 -8 -8 -9 -8 -7
-2 -2 -1 -0 -1 -2 -3 -2 -0 -5 -6 -7 -10 -8 -8 -8 -8 -9 -10 -9 -9 -9 -5 -5 -7 -7 -8 -7 -8 -7 4 7 6 6 6 5 5 5 4 2 -1 -4 -6 -7 -6 -7 -9 -9 -7
-1 -2 -1 0 1 -0 -2 3 -1 -3 -4 -5 -12 -11 -8 -8 -7 -7 -8 -9 -7 -9 -7 -4 -3 -5 -7 -8 -7 -4 -3 -4 0 5 4 5 5 4 4 4 1 -1 -3 -5 -5 -5 -7 -8 -7
-1 -1 -0 1 2 1 1 2 1 -2 -6 -11 -14 -14 -14 -8 -8 -7 -7 -8 -9 -6 -6 -5 -3 -2 -2 -2 -4 -0 2 2 -2 -0 4 6 4 4 4 4 2 1 -1 -3 -3 -4 -6 -7 -7
-2 -0 -3 -2 0 2 -1 2 1 -2 -9 -12 -12 -13 -14 -14 -8 -7 -7 -8 -9 -7 -7 -6 -6 -4 -2 -2 -2 -0 2 3 2 1 0 4 7 4 4 3 3 2 1 -0 -1 -3 -5 -6 -7
-3 -2 1 -0 3 4 -2 -3 -2 -11 -11 -11 -11 -13 -14 -14 -7 -7 -7 -8 -7 -6 -9 -6 -6 -3 -3 -4 -5 -5 -2 2 3 3 1 1 5 6 5 4 3 3 3 2 0 -2 -4 -5 -6
-2 -2 2 3 3 4 -2 -2 -3 -12 -11 -11 -12 -12 -14 -14 -8 -8 -8 -8 -7 -7 -8 -9 -6 -3 -5 -6 -5 -6 -6 -2 -0 1 3 0 1 6 6 5 4 4 4 3 1 -0 -3 -5 -5
-3 -4 -6 -3 -1 0 0 -4 -10 -10 -10 -10 -11 -11 -13 -14 -9 -8 -7 -7 -7 -7 -8 -6 -5 -6 -5 -5 -6 -5 -5 -4 -4 -2 -0 2 -1 1 6 7 5 4 4 3 2 0 -2 -4 -5
-7 -7 -4 -5 -4 -3 -5 -6 -2 -8 -8 -10 -10 -11 -11 -10 -8 -7 -7 -8 -9 -8 -8 -6 -6 -8 -7 -7 -6 -4 -3 -4 -4 -3 -2 -0 -1 -1 5 6 5 4 3 3 2 0 -2 -4 -4
-9 -9 -9 -7 -6 -4 -2 -3 -9 -8 -8 -9 -10 -11 -11 -9 -8 -7 -8 -9 -9 -7 -7 -7 -7 -9 -5 -5 -3 -2 -2 -2 -2 0 1 2 0 -1 2 5 5 4 3 3 2 0 -1 -3 -4
-10 -11 -10 -4 -3 -2 -2 -2 -8 -8 -9 -10 -10 -11 -11 -7 -7 -7 -8 -9 -7 -6 -6 -6 -6 -6 -5 -4 -3 -4 -4 -2 -1 0 0 -1 1 1 -1 2 5 4 3 3 2 0 -1 -3 -4
Wind_Speed
3 3 4 5 4 4 2 6 3 4 3 11 10 3 5 5 4 2 8 9 6 6 10 10 8 7 7 6 5 4 4 4 5 6 4 3 4 6 5 5 6 9 10 10 9 10 10 11 13
3 2 3 2 4 3 3 4 4 5 8 4 1 2 7 1 5 8 10 12 11 7 8 9 9 8 7 7 6 5 5 5 5 5 5 5 6 7 7 6 7 7 7 9 10 9 9 10 12
3 5 3 3 2 3 4 4 7 9 9 4 3 1 1 7 6 2 3 14 12 7 7 10 8 8 8 7 6 5 5 4 4 4 5 6 7 7 7 7 7 7 6 5 7 7 9 9 12
6 2 3 2 5 5 3 3 3 7 6 6 3 5 4 4 4 4 7 12 12 13 9 8 7 8 9 9 7 6 5 4 4 3 4 6 7 7 7 7 6 4 4 4 5 5 7 8 10
6 2 3 2 6 2 5 10 6 1 2 8 10 3 8 9 7 3 12 11 18 16 12 12 11 10 10 10 8 7 6 4 3 3 4 4 6 6 7 7 6 4 3 2 3 5 5 7 9
3 2 3 3 5 6 2 13 13 11 11 7 4 2 6 11 9 7 8 10 18 17 16 14 13 13 10 10 10 9 8 6 4 3 3 4 5 5 6 6 5 4 4 3 2 3 5 6 8
1 3 3 4 6 8 7 10 5 4 9 6 7 1 6 15 11 7 7 14 17 20 17 16 14 12 14 14 13 12 11 9 7 6 4 4 4 4 4 5 5 4 3 3 2 3 5 5 6
1 3 3 3 4 7 9 12 12 12 5 8 14 2 5 12 12 11 11 16 17 20 17 18 16 14 10 16 17 16 14 12 11 9 7 6 5 4 3 4 5 4 3 2 2 2 3 5 6
1 3 2 4 4 6 11 10 14 18 10 10 8 11 17 12 16 16 17 18 19 20 20 19 17 17 15 12 19 19 18 15 13 11 10 9 8 6 3 1 4 3 2 1 2 2 3 4 6
3 3 6 5 2 4 10 8 16 12 20 19 17 17 7 14 19 20 23 22 24 23 22 22 20 19 19 17 14 22 21 19 16 14 13 13 12 9 6 2 1 2 1 1 2 2 3 3 4
5 5 4 12 15 10 8 11 10 11 7 19 17 14 7 16 18 17 21 23 23 25 23 24 22 21 23 23 18 17 21 21 19 17 16 17 16 13 9 6 3 1 1 1 2 3 4 4 5
3 10 13 10 17 8 6 13 11 18 29 24 22 17 15 13 18 20 20 22 22 25 26 26 25 23 25 26 22 21 18 19 23 21 19 21 19 15 13 10 7 5 3 2 3 4 5 6 7
3 7 11 15 24 20 16 14 12 21 30 26 22 18 16 17 15 17 21 22 21 25 28 27 28 25 24 28 26 24 23 22 22 24 24 24 21 19 17 15 12 9 6 5 3 4 6 7 7
6 12 18 20 25 18 14 17 8 17 26 26 19 16 13 17 18 24 23 22 26 23 25 30 31 29 25 28 30 29 28 27 26 25 23 24 24 22 22 20 16 12 10 7 6 6 6 7 8
11 7 8 16 14 6 4 4 6 16 11 11 9 9 15 22 20 16 13 22 24 26 26 27 30 31 31 31 33 34 33 32 30 26 26 28 28 27 25 22 19 16 13 11 10 8 8 9 9
3 1 3 7 5 0 3 9 7 12 15 17 21 21 20 21 21 23 16 12 6 20 20 22 32 34 34 33 34 34 36 36 34 33 33 33 31 30 28 27 23 20 18 15 13 11 11 11 11
4 3 4 9 12 0 3 10 9 11 15 17 16 9 27 26 29 30 30 31 25 11 1 5 5 29 36 31 37 36 35 36 36 35 34 34 34 33 33 31 27 25 23 20 17 15 14 14 13
4 5 4 6 6 9 8 9 12 25 15 17 30 29 30 33 32 32 30 31 29 26 20 14 21 11 9 30 34 35 32 34 35 36 37 36 36 36 36 36 32 31 28 25 22 19 17 16 15
4 3 7 7 7 6 7 10 18 21 26 28 29 30 29 29 29 33 32 31 31 29 27 29 27 22 18 8 13 25 33 37 38 39 39 39 39 37 39 39 38 36 34 29 25 22 21 19 18
6 6 8 7 7 7 8 14 13 22 21 24 23 26 30 30 32 34 35 34 34 34 35 32 30 29 26 22 14 14 20 34 42 42 43 41 40 38 37 38 41 40 38 33 30 28 25 22 20
4 3 4 5 7 5 3 7 5 8 20 24 26 27 29 29 31 34 36 37 37 37 35 36 34 32 29 30 27 17 14 14 25 41 39 41 43 42 40 39 39 42 42 39 35 31 28 26 24
4 3 5 7 6 2 6 4 5 6 8 13 25 29 27 28 29 31 34 36 36 35 30 29 33 34 33 32 32 29 27 28 24 22 40 45 47 46 43 41 40 40 44 43 39 34 31 28 27
7 5 7 8 4 2 4 2 3 8 8 9 18 26 26 22 25 27 29 30 29 29 31 27 27 30 30 29 27 27 29 33 29 28 27 40 49 49 46 44 43 41 43 44 42 38 36 33 30
6 6 12 4 4 2 6 7 1 3 3 7 13 22 22 26 19 22 24 27 30 27 28 29 30 28 27 26 25 25 27 32 37 34 30 32 43 50 49 47 47 45 43 44 44 42 39 35 32
11 6 4 5 2 5 5 4 4 5 9 11 13 16 18 22 13 20 22 28 27 26 35 30 31 28 26 32 32 30 32 31 34 36 35 31 38 48 51 50 49 48 45 44 44 43 41 38 34
4 2 3 4 3 4 13 4 6 9 15 15 16 18 16 20 12 16 19 22 21 27 33 30 27 25 28 29 32 34 32 34 36 39 38 35 34 42 49 52 51 48 45 43 44 45 42 40 35
4 3 4 1 4 1 4 4 2 6 5 14 17 23 18 19 14 18 21 23 25 30 35 27 20 26 28 35 34 34 32 35 37 43 42 40 33 35 44 50 52 50 46 42 46 47 45 42 38
3 3 4 3 3 5 6 4 4 6 7 11 19 25 25 10 17 19 23 29 34 34 38 26 27 35 35 32 33 33 32 36 41 38 39 39 31 34 38 45 49 49 44 40 47 48 46 43 40
4 3 2 2 4 5 4 6 6 3 12 22 37 42 38 22 21 23 25 26 29 28 18 25 31 32 29 32 27 31 35 37 38 36 36 35 33 32 29 41 47 48 46 43 44 50 48 46 42
3 2 2 4 6 3 3 9 8 14 29 34 30 29 22 15 16 21 25 27 25 18 26 31 32 32 28 31 35 37 38 34 36 37 37 40 38 35 26 29 45 43 45 43 46 50 49 47 45
Wind_Direction
332 278 29 21 47 61 129 305 237 27 73 65 48 21 99 114 94 213 148 176 204 196 189 196 190 181 163 152 154 135 106 101 105 107 92 72 64 69 81 96 97 83 79 80 81 79 77 75 81
48 45 18 49 84 49 299 262 284 125 102 66 156 47 104 132 92 134 151 179 222 208 184 199 188 187 173 158 148 131 118 112 102 91 83 76 76 82 84 87 90 100 90 87 82 87 88 86 88
47 12 333 107 179 158 211 223 247 128 117 91 55 7 96 134 119 174 194 191 217 203 204 182 184 196 189 175 167 162 142 128 110 100 93 89 86 84 82 81 93 102 104 89 92 89 93 97 100
14 1 272 74 276 253 227 243 160 140 137 159 142 108 105 158 178 191 187 193 187 198 225 212 227 211 199 191 183 178 169 153 139 118 100 92 85 76 68 72 76 84 103 106 103 103 102 108 114
354 325 357 310 292 277 245 237 101 48 305 193 180 173 152 158 194 186 178 180 191 203 218 239 242 238 204 199 200 190 190 179 167 141 118 103 88 74 64 60 65 65 69 98 118 121 122 116 127
343 319 24 310 296 309 313 59 46 28 6 28 175 139 163 160 181 188 205 176 201 216 223 240 255 251 232 212 214 203 203 202 203 189 153 131 110 82 64 59 57 59 59 67 117 140 142 147 150
104 74 234 283 287 323 324 353 62 38 342 360 3 62 143 171 191 199 176 173 202 224 226 239 259 258 253 222 220 212 209 211 210 205 195 177 153 115 72 61 57 57 59 66 94 142 156 164 149
276 103 279 290 292 280 342 3 14 15 263 288 326 252 181 193 201 191 182 184 198 220 239 247 261 265 277 237 219 218 214 213 214 215 210 205 196 167 109 75 63 61 68 78 98 133 151 160 158
220 56 264 264 333 281 341 13 341 333 338 322 292 302 276 225 194 183 185 195 200 223 242 247 257 254 269 277 238 223 219 220 219 221 221 220 216 202 189 56 55 59 74 114 147 165 175 178 175
148 135 230 199 285 294 324 351 323 326 313 295 292 298 250 214 201 195 194 198 206 217 230 244 254 253 256 258 269 236 226 224 224 224 225 228 226 219 218 226 19 33 47 147 190 193 193 196 177
191 201 218 290 293 301 309 319 310 321 292 280 301 297 290 219 207 212 211 216 213 221 227 235 248 256 253 253 262 249 233 231 229 226 228 232 234 224 226 227 239 291 352 267 213 207 210 203 196
221 244 262 278 308 293 283 296 279 272 270 290 291 299 311 235 232 228 223 224 234 230 234 233 234 244 255 250 261 267 253 245 238 233 228 234 239 234 231 233 237 247 252 253 224 219 216 214 210
251 276 288 293 296 293 294 277 265 272 285 290 290 284 285 293 252 252 254 244 240 243 245 237 229 230 244 252 261 255 256 261 250 240 229 235 235 238 235 236 237 247 264 285 279 252 230 223 220
292 305 302 300 282 278 264 267 277 276 306 296 277 284 276 282 278 266 266 255 242 245 250 243 234 235 237 243 253 254 256 262 263 251 247 244 242 239 240 239 240 244 253 262 270 270 258 239 231
301 305 313 277 274 219 213 7 230 308 2 10 326 357 341 328 360 35 302 270 254 244 246 248 250 247 238 237 240 246 252 256 262 255 255 254 249 244 243 243 242 241 247 250 256 259 264 260 249
265 60 338 309 41 285 165 268 258 284 298 307 309 304 308 58 48 49 45 41 290 262 261 264 249 250 244 230 236 241 243 249 252 253 254 258 253 250 245 243 244 244 245 248 251 257 259 257 253
4 284 299 331 337 241 192 268 266 277 283 295 302 348 79 57 46 42 44 48 57 72 260 323 300 232 238 246 233 237 243 243 248 248 255 259 254 254 250 246 245 244 245 247 250 254 255 255 253
291 320 297 279 301 338 314 287 303 309 311 60 82 83 65 54 46 39 38 38 40 42 54 60 60 63 247 232 236 235 239 245 247 249 254 258 257 255 253 249 246 245 245 246 246 249 251 251 250
257 276 291 280 299 15 317 312 326 359 78 76 71 66 61 53 44 35 32 31 32 28 27 29 29 30 45 19 261 261 252 241 244 250 255 254 258 260 252 249 247 245 246 249 249 248 248 249 248
312 296 291 294 3 10 318 302 57 68 78 82 75 65 57 44 32 24 20 19 19 13 9 9 12 14 15 12 4 320 282 256 254 257 254 252 257 262 261 252 247 247 247 244 244 245 247 243 241
305 299 319 286 330 300 325 339 105 79 93 80 66 65 54 43 32 24 18 15 11 11 7 357 353 352 349 350 351 342 303 288 274 250 248 253 258 261 264 261 251 249 248 246 247 246 246 246 241
322 333 331 324 22 310 67 281 177 128 86 67 55 49 49 42 35 29 21 16 9 6 2 0 357 349 341 337 340 342 340 334 307 288 256 261 261 259 259 261 255 252 251 249 247 246 245 242 242
251 323 295 277 232 338 336 150 330 105 59 33 44 37 36 32 31 30 21 13 9 6 5 357 358 354 349 341 331 333 335 328 324 292 288 263 257 258 254 257 256 252 253 252 249 245 241 241 240
314 345 299 297 138 186 252 196 229 27 85 41 27 30 30 18 21 20 14 8 7 3 356 356 351 347 345 345 333 325 327 330 320 315 300 291 265 253 250 249 253 252 254 253 251 248 244 243 240
24 29 338 8 13 216 351 0 136 125 76 51 15 16 19 7 11 13 10 3 4 358 352 349 346 342 337 336 335 327 314 319 321 317 311 309 283 257 250 248 247 250 254 256 251 246 244 240 236
301 144 130 285 297 282 340 232 196 134 84 46 32 7 4 3 5 5 1 360 354 350 350 338 340 337 332 335 333 329 320 316 309 313 311 305 300 272 258 253 248 251 253 255 253 246 243 241 237
327 26 192 279 276 306 242 75 198 137 65 26 8 3 348 349 3 2 1 360 352 346 345 343 347 339 325 319 320 322 312 310 315 307 305 305 305 291 263 258 253 247 249 251 252 246 240 238 236
128 197 22 4 290 283 282 254 197 13 347 349 350 347 336 0 5 2 355 349 342 341 337 326 328 327 326 315 311 317 308 312 317 313 305 302 306 304 267 257 253 246 246 248 249 243 239 236 235
352 355 7 173 165 211 278 255 165 62 352 343 345 338 337 345 355 356 347 336 335 328 320 334 331 327 323 322 314 315 313 315 316 312 312 302 303 303 290 256 253 245 243 242 244 242 239 234 233
155 210 153 125 279 254 151 264 38 3 338 335 318 320 326 337 345 339 336 337 332 323 323 330 329 327 322 320 314 313 315 308 305 308 312 315 299 305 299 284 255 245 243 241 240 239 236 232 231
Height
1547 1547 1545 1546 1556 1557 1562 1557 1541 1538 1537 1537 1538 1538 1542 1541 1542 1556 1545 1545 1545 1547 1548 1549 1550 1551 1552 1552 1553 1554 1554 1554 1554 1554 1555 1555 1555 1555 1555 1556 1556 1557 1556 1556 1557 1557 1558 1558 1558
1547 1547 1546 1547 1562 1569 1560 1544 1541 1537 1536 1536 1537 1537 1540 1544 1542 1543 1543 1543 1544 1546 1547 1548 1549 1551 1551 1552 1553 1553 1554 1554 1554 1554 1554 1555 1555 1555 1555 1555 1556 1557 1557 1557 1557 1558 1559 1559 1559
1548 1547 1548 1550 1558 1560 1556 1538 1539 1534 1534 1535 1537 1538 1538 1540 1540 1540 1542 1543 1544 1545 1546 1547 1548 1550 1551 1551 1552 1553 1553 1554 1554 1554 1554 1555 1555 1555 1555 1555 1556 1556 1557 1557 1558 1559 1559 1560 1560
1548 1549 1550 1555 1557 1548 1544 1538 1533 1534 1535 1533 1535 1537 1539 1538 1538 1538 1540 1542 1543 1543 1544 1546 1547 1548 1549 1550 1551 1553 1554 1554 1554 1554 1554 1554 1555 1555 1555 1555 1555 1556 1556 1557 1557 1558 1559 1560 1560
1550 1550 1556 1556 1553 1541 1537 1532 1532 1532 1533 1533 1533 1534 1536 1536 1537 1537 1539 1541 1542 1543 1544 1546 1546 1547 1548 1550 1551 1552 1553 1554 1555 1555 1554 1555 1555 1555 1555 1555 1555 1555 1555 1556 1556 1557 1558 1559 1560
1551 1552 1565 1569 1555 1541 1536 1534 1534 1535 1534 1535 1535 1535 1537 1538 1538 1538 1539 1539 1540 1543 1544 1545 1546 1546 1547 1548 1550 1551 1552 1552 1553 1554 1554 1554 1555 1555 1555 1554 1554 1554 1554 1555 1555 1555 1556 1557 1559
1552 1557 1563 1556 1555 1546 1537 1533 1533 1534 1535 1536 1536 1535 1537 1538 1538 1537 1538 1538 1538 1540 1541 1543 1545 1546 1546 1546 1547 1548 1549 1550 1551 1551 1552 1553 1554 1554 1554 1554 1554 1553 1553 1553 1554 1554 1555 1555 1556
1552 1553 1555 1554 1556 1552 1539 1537 1537 1536 1534 1534 1535 1536 1537 1535 1535 1536 1538 1539 1538 1539 1540 1541 1542 1544 1543 1544 1544 1546 1547 1548 1548 1549 1550 1551 1552 1553 1553 1553 1553 1553 1552 1552 1553 1553 1554 1554 1555
1552 1561 1567 1555 1550 1546 1539 1539 1536 1536 1535 1534 1532 1532 1530 1529 1531 1533 1536 1538 1538 1537 1537 1537 1538 1540 1541 1542 1542 1543 1544 1546 1547 1548 1548 1549 1550 1551 1552 1551 1551 1552 1552 1551 1551 1552 1552 1553 1553
1551 1563 1555 1544 1543 1542 1539 1539 1539 1537 1534 1531 1530 1530 1529 1529 1527 1528 1530 1531 1533 1534 1533 1533 1534 1536 1538 1539 1540 1541 1542 1543 1545 1546 1546 1547 1548 1549 1550 1550 1550 1550 1550 1550 1550 1550 1551 1551 1552
1548 1554 1543 1540 1540 1539 1538 1537 1538 1537 1533 1529 1530 1530 1530 1529 1529 1529 1529 1530 1530 1531 1533 1531 1532 1533 1534 1535 1538 1538 1540 1541 1543 1543 1544 1544 1546 1547 1547 1548 1548 1549 1549 1549 1549 1549 1549 1549 1550
1546 1541 1541 1539 1539 1537 1536 1536 1534 1534 1528 1528 1528 1529 1530 1529 1528 1528 1529 1529 1530 1531 1530 1531 1531 1532 1532 1531 1533 1536 1538 1540 1540 1542 1542 1540 1542 1543 1545 1546 1546 1547 1547 1547 1548 1548 1547 1547 1548
1542 1539 1538 1536 1535 1535 1534 1533 1532 1527 1524 1525 1525 1526 1527 1528 1528 1527 1525 1526 1528 1528 1528 1528 1527 1528 1528 1528 1529 1531 1533 1536 1538 1538 1539 1538 1540 1540 1542 1543 1544 1544 1544 1544 1545 1545 1545 1546 1546
1539 1538 1535 1533 1528 1531 1530 1526 1530 1522 1523 1521 1522 1524 1525 1526 1525 1522 1522 1521 1521 1522 1522 1522 1522 1523 1523 1524 1527 1527 1529 1532 1535 1536 1537 1537 1538 1538 1539 1540 1541 1541 1541 1542 1542 1543 1543 1543 1543
1539 1539 1535 1525 1524 1526 1525 1529 1526 1522 1521 1519 1521 1523 1523 1525 1522 1520 1516 1514 1516 1514 1517 1518 1519 1519 1519 1517 1520 1523 1524 1526 1528 1530 1533 1535 1535 1536 1537 1537 1538 1539 1539 1539 1539 1540 1540 1540 1541
1539 1540 1547 1530 1526 1528 1528 1538 1521 1521 1520 1519 1520 1521 1522 1521 1520 1519 1514 1512 1510 1514 1513 1515 1510 1511 1513 1514 1515 1514 1516 1518 1521 1525 1529 1531 1533 1533 1534 1534 1536 1537 1537 1537 1536 1537 1537 1538 1538
1545 1554 1545 1541 1529 1528 1530 1530 1518 1518 1518 1517 1517 1520 1521 1520 1518 1516 1514 1512 1508 1508 1509 1510 1510 1513 1513 1511 1512 1512 1512 1513 1515 1518 1522 1525 1527 1530 1530 1531 1533 1533 1533 1533 1534 1534 1534 1535 1535
1558 1555 1547 1548 1533 1530 1531 1525 1516 1513 1516 1517 1519 1521 1522 1522 1522 1520 1516 1512 1509 1509 1509 1510 1508 1508 1510 1514 1514 1510 1511 1511 1512 1512 1514 1518 1521 1524 1525 1527 1528 1528 1529 1529 1530 1530 1531 1532 1532
1546 1547 1550 1540 1532 1534 1534 1528 1519 1513 1514 1521 1523 1524 1524 1524 1525 1521 1517 1513 1509 1507 1507 1507 1508 1508 1508 1510 1513 1513 1511 1505 1506 1506 1507 1510 1513 1516 1518 1521 1523 1523 1523 1525 1526 1526 1526 1527 1528
1543 1547 1547 1536 1532 1534 1534 1530 1531 1525 1527 1528 1528 1526 1524 1524 1522 1520 1516 1514 1511 1510 1508 1507 1507 1509 1509 1509 1510 1510 1508 1507 1503 1500 1500 1502 1506 1509 1511 1514 1516 1518 1519 1521 1521 1521 1522 1523 1523
1544 1545 1546 1547 1539 1534 1532 1537 1534 1533 1530 1530 1530 1530 1525 1524 1523 1520 1517 1515 1513 1511 1509 1507 1506 1505 1505 1506 1505 1503 1502 1502 1503 1502 1497 1499 1499 1500 1502 1505 1509 1512 1513 1514 1515 1516 1517 1517 1518
1550 1539 1540 1542 1550 1557 1539 1566 1536 1536 1534 1533 1532 1529 1526 1524 1523 1521 1519 1517 1515 1514 1513 1511 1509 1505 1503 1502 1500 1501 1501 1499 1499 1499 1499 1494 1492 1493 1495 1496 1500 1504 1506 1508 1510 1511 1511 1512 1512
1547 1539 1541 1541 1548 1549 1544 1555 1542 1534 1540 1539 1535 1532 1529 1527 1524 1523 1522 1521 1520 1517 1514 1512 1510 1507 1505 1503 1501 1498 1496 1496 1493 1491 1489 1489 1489 1486 1487 1489 1491 1494 1498 1501 1504 1505 1504 1505 1507
1540 1542 1538 1535 1547 1562 1541 1540 1545 1544 1544 1542 1537 1534 1532 1530 1527 1525 1524 1522 1520 1517 1515 1513 1510 1507 1504 1501 1500 1496 1493 1490 1487 1486 1483 1481 1481 1480 1478 1481 1483 1485 1489 1492 1496 1499 1501 1500 1501
1546 1553 1567 1556 1559 1558 1532 1534 1545 1546 1543 1541 1539 1536 1533 1531 1528 1525 1522 1519 1517 1516 1513 1510 1506 1504 1501 1499 1497 1495 1491 1486 1482 1480 1478 1474 1472 1471 1469 1471 1473 1476 1480 1482 1486 1490 1493 1494 1495
1553 1553 1571 1571 1570 1561 1535 1543 1544 1541 1540 1539 1538 1536 1532 1529 1526 1524 1521 1519 1517 1514 1511 1507 1504 1500 1497 1496 1492 1489 1486 1482 1478 1475 1472 1468 1465 1463 1462 1461 1462 1466 1470 1474 1477 1480 1484 1487 1489
1554 1562 1558 1566 1562 1566 1551 1537 1542 1537 1535 1534 1534 1532 1529 1525 1522 1520 1518 1516 1513 1510 1509 1505 1500 1498 1496 1491 1488 1485 1481 1477 1473 1468 1465 1461 1457 1454 1452 1452 1453 1455 1459 1465 1467 1470 1474 1478 1481
1552 1553 1567 1574 1576 1576 1554 1537 1533 1535 1534 1531 1530 1527 1524 1522 1519 1517 1514 1510 1506 1503 1500 1499 1498 1495 1492 1489 1484 1478 1474 1470 1465 1461 1456 1452 1447 1446 1442 1441 1443 1445 1450 1455 1458 1460 1465 1469 1473
1562 1564 1563 1567 1572 1579 1574 1551 1532 1530 1528 1523 1516 1515 1516 1518 1514 1510 1509 1509 1507 1505 1502 1499 1495 1491 1486 1482 1477 1472 1467 1462 1458 1454 1448 1443 1440 1439 1434 1432 1433 1434 1439 1445 1448 1451 1456 1460 1465
1558 1561 1564 1588 1573 1573 1590 1545 1522 1525 1528 1526 1526 1523 1520 1518 1515 1511 1507 1504 1501 1499 1496 1491 1487 1482 1479 1475 1470 1465 1460 1455 1450 1446 1442 1438 1435 1433 1426 1424 1424 1424 1428 1435 1438 1442 1447 1452 1456